Wind_Speed
24 24 24 25 25 26 25 24 23 23 23 23 24 24 24 23 23 22 21 20 21 21 21 21 21 21 20 20 20 20 20 20 20 20 20 20 20 19 19 19 18 18 18 17 17 17 16 17 17
25 25 25 26 27 26 25 24 24 24 24 24 25 25 25 25 24 23 22 22 22 22 22 22 23 23 23 23 22 22 22 21 21 21 22 22 22 21 21 21 20 20 20 20 19 19 18 18 18
25 26 27 27 27 27 26 25 26 26 26 26 26 26 26 26 26 25 24 24 23 23 24 24 25 25 25 25 25 25 24 24 24 23 23 23 23 23 23 23 22 22 22 22 22 21 21 21 20
24 26 27 28 28 27 27 27 27 28 28 28 28 28 28 28 28 27 27 26 26 25 26 27 27 27 27 27 26 26 26 26 26 26 26 25 25 25 25 25 25 25 24 24 24 24 24 23 23
23 25 26 27 27 27 28 28 29 30 30 30 30 30 30 30 29 29 28 28 28 28 28 28 28 29 29 29 29 29 28 28 28 28 28 28 28 28 28 27 27 27 27 27 27 27 26 26 25
22 23 25 26 27 27 28 29 30 30 30 30 31 31 31 32 32 31 30 29 29 29 29 30 30 30 30 31 31 31 31 30 30 30 30 30 30 30 30 30 30 30 29 29 29 29 29 28 28
22 23 24 25 26 27 28 30 30 31 31 31 32 32 32 33 34 33 32 31 31 30 30 31 31 31 32 32 32 32 33 33 33 33 32 32 32 32 33 32 32 32 32 32 32 31 31 30 30
23 23 23 23 24 25 28 30 31 31 32 33 33 33 33 34 35 34 34 33 33 32 32 32 33 33 33 34 34 34 34 34 34 34 34 34 34 34 34 34 34 34 34 34 33 33 33 33 32
23 23 23 24 25 26 28 29 30 31 32 33 34 35 34 35 35 35 35 34 35 35 35 35 35 35 35 35 36 36 36 36 36 36 37 37 37 36 36 36 36 36 36 35 35 35 35 35 34
23 24 23 25 26 27 28 29 29 30 31 32 33 34 35 35 36 36 35 36 36 36 37 37 37 37 37 38 38 38 38 39 39 39 39 39 39 39 39 39 39 39 38 38 37 37 36 36 35
24 24 25 25 26 28 29 29 30 30 31 32 33 33 34 34 35 35 36 36 36 37 38 38 38 39 39 39 40 40 41 41 41 41 41 41 41 41 41 41 41 41 40 40 40 39 39 38 37
24 24 25 26 27 27 28 29 29 31 32 33 33 33 34 34 34 34 35 36 37 37 38 39 40 40 40 41 41 42 43 43 43 44 44 44 44 44 44 43 43 43 43 43 43 42 41 41 40
25 25 26 27 28 28 28 28 29 30 31 32 33 33 34 34 34 34 35 37 38 38 39 39 40 41 42 42 43 43 44 45 46 46 46 46 46 46 46 46 46 45 45 45 45 44 44 43 42
27 27 27 28 28 29 29 29 28 28 29 30 32 33 34 34 35 35 37 38 38 39 40 41 41 43 43 44 45 46 46 46 47 47 47 47 47 47 47 47 47 47 47 46 46 46 46 45 44
28 28 28 28 28 28 29 29 28 29 30 30 31 32 33 34 35 36 37 38 39 40 41 41 43 44 44 45 46 47 47 47 47 48 49 49 49 49 48 48 48 48 48 48 48 48 47 47 46
29 28 28 28 29 29 30 29 29 30 31 31 31 33 33 34 35 36 37 38 39 40 41 42 44 44 45 46 47 48 48 48 49 49 50 51 51 51 50 50 50 50 50 50 50 50 50 49 49
30 30 29 29 30 30 31 29 30 32 32 32 32 33 34 34 35 36 37 38 40 41 42 43 44 45 45 46 47 48 49 50 51 52 52 53 54 53 52 53 53 52 52 52 53 52 52 51 51
31 31 31 31 32 33 33 31 31 33 33 33 33 34 35 35 36 36 37 38 40 41 42 43 44 46 46 47 48 49 50 51 52 53 54 55 56 56 55 55 55 54 54 54 54 54 53 53 53
34 34 33 33 34 35 34 33 33 34 34 34 34 35 35 37 37 37 38 39 41 42 43 44 46 47 48 49 50 50 50 51 52 53 54 55 56 57 57 57 57 56 56 55 55 55 55 55 55
36 36 35 35 36 37 36 35 34 35 34 34 35 36 36 37 39 39 40 41 43 44 45 46 47 48 49 50 51 51 51 52 52 53 54 55 56 57 58 58 58 58 57 57 57 57 57 56 56
37 37 37 37 37 38 39 37 35 35 35 36 37 37 38 39 40 41 41 42 43 45 46 47 48 49 50 51 52 52 52 52 52 52 53 54 56 56 57 57 58 58 59 58 58 58 58 57 56
38 38 39 39 39 39 40 41 37 36 37 37 37 38 39 41 41 40 41 42 43 44 46 47 48 49 50 51 52 52 52 52 51 51 51 53 54 55 55 56 56 57 58 60 59 59 59 58 57
39 39 40 41 41 42 40 42 40 38 37 38 39 39 40 41 41 41 41 42 43 44 45 46 47 48 49 50 51 51 52 51 51 50 50 51 52 53 54 54 54 55 56 57 59 58 57 57 57
39 40 41 42 43 44 41 42 42 39 38 39 39 40 40 41 41 41 41 41 43 44 45 45 46 47 48 49 50 50 51 50 49 49 48 49 50 51 51 53 53 53 53 53 54 55 55 55 55
39 40 41 43 44 45 43 43 43 40 39 39 40 40 40 41 41 42 42 42 42 43 44 44 45 46 46 47 48 48 49 49 48 47 47 47 48 49 49 50 50 51 51 51 51 52 53 53 53
40 40 41 44 45 45 44 44 43 41 40 39 40 40 40 41 41 42 42 43 43 43 43 44 45 45 45 45 46 46 46 47 47 47 47 46 46 48 48 48 48 48 49 49 50 50 50 50 50
40 40 40 43 44 45 45 45 43 41 40 39 40 40 40 41 41 41 41 42 43 42 42 43 44 44 44 44 44 44 45 45 46 47 46 45 46 46 46 46 46 46 47 47 48 48 48 48 49
41 40 40 42 43 44 45 44 42 41 39 38 38 38 38 39 39 39 40 41 42 42 42 44 43 43 43 43 43 43 44 44 44 45 45 45 45 46 46 44 44 44 44 45 46 47 47 47 47
40 40 40 41 42 43 44 42 41 40 39 38 38 38 37 37 37 38 38 40 41 41 41 41 42 42 43 43 43 43 43 42 43 43 43 43 43 43 43 43 43 43 43 44 45 46 46 46 46
40 40 39 40 41 43 44 42 39 39 39 38 37 37 37 37 37 37 38 39 40 40 40 41 41 42 42 42 41 41 41 40 41 41 41 41 41 41 42 42 42 42 42 43 44 45 45 45 45
Wind_Direction
246 245 244 244 243 243 243 243 243 242 242 241 241 241 241 242 244 247 248 246 244 244 245 246 246 246 247 248 248 250 251 252 254 254 253 254 255 256 257 257 257 258 259 261 262 265 266 268 269
248 247 246 245 245 245 244 244 243 243 242 242 243 244 244 244 245 247 247 247 245 244 246 246 247 248 248 249 250 251 252 254 255 256 255 255 256 257 258 259 259 259 260 261 262 264 266 268 269
249 248 248 247 247 247 246 245 244 243 243 243 243 244 245 246 247 247 248 248 248 247 247 247 248 249 250 251 251 252 253 255 256 257 256 256 256 258 259 259 260 261 261 261 262 263 266 268 269
251 250 249 249 248 248 247 246 245 244 244 244 245 245 246 247 248 249 250 250 249 249 249 249 250 250 251 251 252 253 254 255 256 257 257 257 257 258 258 259 260 261 262 262 263 263 266 268 269
254 253 251 250 249 248 248 247 246 246 246 245 246 246 246 247 249 250 251 252 252 251 252 252 253 253 253 253 253 254 255 256 256 256 258 258 259 259 259 259 260 261 262 263 264 264 265 268 268
257 255 253 252 250 248 249 249 249 248 248 247 247 247 248 249 250 250 251 252 252 252 252 254 254 254 255 255 255 255 256 256 256 256 257 259 259 259 259 260 261 262 263 263 264 266 267 268 268
258 256 255 254 253 252 252 252 251 251 250 249 249 249 248 248 250 250 251 251 252 252 252 253 254 255 255 256 256 257 257 257 258 258 258 258 259 260 260 260 261 262 263 264 264 265 267 268 268
259 258 258 257 256 254 253 253 252 251 251 251 251 251 250 250 250 251 251 251 252 253 253 253 255 256 257 257 258 258 258 258 259 259 260 260 260 260 261 261 261 262 263 264 265 265 265 266 268
260 260 260 258 256 256 256 256 255 254 254 253 253 253 252 251 251 251 251 252 252 254 254 254 255 256 257 258 258 259 259 259 260 260 260 260 261 261 261 261 261 261 262 263 264 265 265 265 266
263 262 261 260 258 258 258 258 256 255 256 256 255 254 253 252 252 251 252 252 253 254 255 256 256 257 258 259 259 259 260 260 261 261 261 261 261 260 260 261 261 262 262 263 263 264 265 266 266
266 264 262 261 261 260 260 259 258 257 257 257 256 255 254 253 252 253 253 254 254 255 256 257 257 258 258 259 259 260 260 261 262 262 261 261 261 261 260 261 261 262 262 262 263 263 264 266 266
266 265 264 264 263 262 261 260 260 258 256 255 255 255 256 255 254 254 255 255 255 255 256 257 258 259 259 260 260 261 262 262 262 262 261 261 261 261 261 260 261 262 262 262 262 262 263 265 265
267 267 266 265 265 264 263 262 261 260 259 257 256 255 256 256 256 256 256 257 257 257 257 258 259 259 260 260 261 262 262 262 262 262 262 262 262 261 261 261 261 261 261 262 262 263 263 264 264
268 268 268 266 265 266 265 263 260 260 260 257 257 257 256 256 257 258 259 259 259 259 259 259 260 260 261 261 262 263 264 264 263 263 263 263 262 262 262 261 261 261 261 261 262 262 262 263 263
267 268 268 267 266 266 265 263 262 261 261 258 257 257 257 257 258 259 260 260 260 259 259 260 260 261 262 262 263 264 264 264 265 264 263 263 263 262 262 261 261 261 260 261 261 262 262 262 263
267 267 268 267 266 265 264 263 262 262 261 260 258 258 258 259 260 261 262 262 262 262 261 261 261 262 263 263 264 264 265 265 265 265 264 263 262 262 261 261 261 261 261 261 261 261 261 262 262
267 268 267 267 266 264 264 263 263 265 263 262 262 261 260 261 262 263 263 264 264 263 263 262 263 264 264 265 266 266 266 265 265 265 264 263 262 261 261 260 260 260 260 261 261 261 262 262 261
267 268 266 266 266 265 264 263 263 265 265 264 264 263 263 263 264 265 265 266 266 266 265 265 265 265 266 267 267 267 267 267 267 266 266 265 263 262 262 261 261 260 260 261 261 261 262 261 261
267 267 267 268 268 266 265 264 265 265 264 264 265 265 266 267 266 267 267 267 267 267 268 268 267 267 268 269 269 269 269 269 268 268 267 266 265 263 262 261 260 260 260 261 261 261 261 262 261
267 268 269 269 269 267 266 265 266 266 265 266 267 268 269 269 269 270 268 269 269 269 269 270 269 269 269 270 270 271 271 270 268 268 267 266 265 264 262 260 259 259 259 260 260 261 261 261 261
267 268 269 270 269 269 268 266 265 265 264 266 268 269 270 270 270 271 271 270 271 272 272 271 271 270 270 271 271 271 271 271 270 269 268 267 266 265 263 261 260 259 258 259 260 261 261 260 259
266 267 268 269 270 269 269 269 266 264 265 267 268 270 271 272 272 273 273 273 273 274 273 272 272 272 271 271 272 272 272 271 271 270 269 267 265 265 264 262 261 260 259 259 259 261 261 260 259
265 265 267 268 269 269 270 271 269 267 267 268 269 270 271 273 273 273 274 274 274 274 274 273 272 273 272 273 273 273 273 273 271 270 269 267 265 265 264 263 261 260 260 260 259 260 261 260 260
265 266 267 268 268 269 270 271 272 269 270 271 271 272 273 273 273 274 274 276 275 275 275 273 273 274 274 275 275 275 274 273 271 270 269 268 266 265 265 263 261 260 259 260 260 259 260 260 259
264 266 268 269 269 270 271 271 272 273 273 274 273 272 274 275 275 275 276 277 277 277 275 274 275 276 275 276 277 277 276 273 271 270 270 269 267 265 264 262 261 260 260 260 260 259 258 258 258
264 266 267 270 271 271 271 272 273 275 275 275 274 274 275 276 276 277 277 277 276 276 276 275 276 276 276 276 278 277 277 273 270 269 270 269 267 265 264 262 261 260 260 259 259 259 257 257 257
263 264 266 269 271 271 271 272 274 275 276 277 275 275 276 276 277 277 277 276 276 276 276 277 277 276 277 277 278 276 277 275 272 270 269 267 266 265 264 261 260 260 260 260 259 259 257 256 257
262 264 266 267 270 271 271 272 275 275 276 276 275 275 275 276 276 277 277 276 276 277 278 278 278 277 278 278 277 277 277 276 273 271 269 267 265 264 263 262 260 260 259 259 260 260 258 256 255
261 263 265 267 267 269 271 272 275 277 277 277 276 275 276 277 278 278 279 277 276 277 278 278 278 278 278 278 277 278 278 276 273 271 269 267 265 262 261 260 261 261 261 260 260 260 257 256 255
262 263 264 265 267 268 269 271 272 275 275 275 275 275 275 276 278 278 278 277 276 275 276 277 278 279 279 278 277 278 278 277 274 271 270 268 266 264 261 261 261 261 261 260 260 259 257 255 254
Height
5813 5814 5816 5818 5819 5820 5822 5824 5825 5827 5828 5829 5830 5831 5833 5834 5836 5839 5840 5840 5841 5842 5843 5844 5845 5846 5847 5848 5849 5850 5851 5852 5852 5853 5854 5855 5855 5856 5857 5857 5858 5858 5859 5859 5859 5859 5859 5859 5860
5808 5810 5812 5813 5814 5815 5818 5820 5821 5822 5824 5825 5826 5827 5828 5830 5831 5833 5834 5835 5837 5838 5840 5841 5842 5843 5844 5845 5845 5846 5847 5848 5849 5850 5851 5851 5852 5853 5853 5854 5855 5855 5856 5856 5856 5856 5857 5857 5857
5803 5805 5807 5808 5809 5811 5814 5815 5816 5817 5819 5820 5821 5822 5824 5825 5827 5828 5830 5831 5833 5834 5835 5836 5837 5838 5839 5840 5841 5842 5843 5844 5845 5846 5847 5848 5848 5849 5850 5850 5851 5852 5852 5853 5853 5853 5853 5854 5854
5799 5800 5801 5803 5804 5807 5808 5810 5811 5812 5814 5815 5816 5817 5819 5820 5822 5823 5825 5826 5828 5829 5830 5831 5832 5833 5835 5836 5837 5838 5839 5840 5841 5842 5843 5844 5844 5845 5846 5846 5847 5848 5848 5849 5849 5850 5850 5850 5850
5793 5794 5796 5797 5798 5801 5802 5803 5804 5806 5808 5810 5811 5812 5813 5815 5816 5818 5819 5821 5822 5824 5825 5826 5827 5828 5829 5830 5832 5833 5834 5835 5836 5837 5838 5839 5839 5840 5841 5842 5842 5843 5844 5844 5845 5845 5846 5846 5846
5789 5789 5790 5791 5793 5795 5796 5797 5798 5800 5802 5804 5805 5806 5808 5809 5810 5812 5814 5815 5817 5818 5819 5820 5821 5823 5824 5825 5826 5827 5828 5829 5830 5831 5832 5833 5834 5835 5836 5837 5837 5838 5839 5839 5840 5840 5841 5841 5841
5784 5784 5784 5786 5787 5789 5790 5791 5792 5794 5795 5797 5798 5800 5801 5803 5804 5806 5807 5809 5810 5812 5813 5814 5815 5816 5817 5819 5820 5821 5822 5823 5824 5826 5826 5827 5828 5829 5830 5831 5831 5832 5833 5834 5834 5835 5835 5836 5836
5778 5779 5779 5780 5781 5783 5783 5784 5785 5787 5788 5790 5791 5793 5795 5796 5797 5799 5801 5802 5804 5805 5807 5808 5809 5810 5811 5812 5813 5815 5816 5817 5818 5819 5820 5821 5822 5823 5823 5824 5825 5826 5827 5827 5828 5829 5829 5830 5830
5772 5774 5774 5775 5775 5776 5777 5777 5778 5780 5781 5782 5784 5786 5788 5789 5790 5792 5794 5796 5797 5798 5799 5801 5802 5803 5804 5805 5806 5807 5809 5810 5811 5812 5813 5814 5815 5816 5816 5817 5818 5819 5820 5821 5821 5822 5823 5823 5824
5767 5768 5769 5769 5769 5769 5770 5771 5772 5773 5774 5775 5776 5778 5779 5781 5782 5784 5786 5788 5789 5791 5792 5793 5795 5796 5797 5798 5799 5800 5801 5802 5803 5804 5805 5806 5807 5808 5809 5810 5810 5811 5813 5814 5814 5815 5816 5816 5817
5761 5761 5762 5762 5762 5762 5763 5764 5764 5765 5766 5767 5768 5769 5771 5773 5775 5776 5778 5780 5781 5782 5784 5785 5786 5788 5789 5790 5790 5791 5793 5794 5795 5796 5797 5798 5799 5800 5801 5802 5803 5803 5805 5806 5807 5807 5808 5809 5809
5755 5755 5754 5755 5754 5755 5755 5756 5757 5757 5758 5759 5760 5761 5763 5765 5767 5768 5770 5772 5773 5774 5776 5777 5778 5779 5780 5781 5782 5783 5784 5785 5786 5787 5788 5789 5790 5791 5792 5793 5794 5795 5796 5797 5798 5799 5800 5801 5801
5748 5748 5748 5747 5747 5747 5748 5748 5748 5749 5749 5750 5752 5753 5755 5756 5758 5760 5761 5763 5764 5766 5767 5768 5769 5770 5771 5772 5773 5774 5774 5775 5776 5777 5778 5779 5780 5781 5782 5783 5784 5785 5786 5787 5788 5789 5791 5792 5792
5741 5741 5740 5740 5740 5739 5739 5740 5740 5741 5741 5742 5743 5745 5747 5748 5749 5751 5752 5754 5755 5756 5758 5758 5759 5760 5761 5762 5763 5763 5764 5765 5765 5766 5767 5768 5769 5770 5771 5772 5774 5775 5776 5777 5778 5780 5781 5782 5783
5734 5734 5733 5733 5732 5732 5732 5732 5733 5733 5733 5734 5735 5736 5738 5739 5741 5742 5743 5744 5745 5746 5748 5748 5749 5750 5750 5751 5752 5752 5753 5754 5754 5755 5755 5756 5757 5758 5760 5761 5762 5764 5765 5766 5767 5769 5770 5771 5772
5726 5726 5726 5726 5725 5724 5725 5726 5726 5725 5725 5726 5727 5728 5729 5731 5732 5733 5733 5734 5735 5736 5737 5738 5738 5739 5739 5740 5741 5741 5741 5742 5742 5743 5743 5743 5745 5746 5747 5749 5750 5752 5753 5754 5755 5757 5758 5760 5761
5719 5719 5718 5718 5717 5716 5716 5718 5719 5717 5717 5718 5719 5720 5720 5722 5723 5723 5724 5724 5725 5725 5726 5727 5727 5728 5728 5729 5729 5729 5729 5729 5729 5729 5730 5730 5731 5732 5734 5736 5738 5739 5740 5741 5743 5744 5746 5747 5749
5711 5710 5710 5709 5709 5708 5708 5709 5710 5709 5709 5710 5710 5711 5711 5712 5713 5713 5713 5713 5714 5714 5715 5715 5716 5716 5716 5716 5716 5716 5716 5716 5715 5715 5715 5716 5717 5718 5719 5721 5723 5725 5726 5727 5729 5731 5732 5734 5735
5701 5701 5701 5701 5699 5699 5699 5700 5701 5700 5700 5701 5701 5702 5703 5703 5703 5703 5703 5703 5703 5703 5703 5703 5703 5703 5703 5702 5702 5702 5702 5702 5701 5700 5700 5700 5701 5702 5703 5705 5707 5709 5711 5713 5715 5716 5718 5720 5721
5692 5692 5692 5692 5690 5689 5690 5691 5692 5692 5692 5692 5692 5692 5693 5693 5693 5692 5692 5692 5691 5691 5691 5691 5690 5689 5689 5688 5688 5688 5688 5687 5686 5685 5684 5684 5685 5686 5687 5689 5691 5693 5696 5698 5700 5701 5703 5706 5707
5682 5682 5682 5681 5680 5679 5679 5681 5683 5683 5682 5682 5682 5682 5682 5682 5682 5681 5680 5679 5679 5678 5678 5677 5676 5675 5675 5674 5674 5673 5672 5672 5671 5670 5669 5669 5669 5669 5670 5672 5675 5677 5680 5682 5684 5686 5688 5690 5692
5672 5672 5671 5670 5670 5670 5670 5669 5674 5674 5673 5673 5673 5672 5671 5670 5670 5669 5668 5667 5666 5665 5664 5663 5662 5661 5660 5659 5658 5658 5657 5657 5656 5655 5654 5653 5653 5652 5654 5656 5658 5661 5663 5666 5668 5670 5672 5674 5677
5662 5662 5661 5660 5659 5659 5660 5658 5662 5663 5663 5663 5662 5661 5660 5659 5658 5657 5656 5654 5653 5652 5650 5648 5647 5646 5645 5644 5643 5642 5642 5641 5641 5639 5639 5638 5638 5638 5639 5641 5642 5644 5647 5649 5652 5654 5656 5658 5661
5651 5651 5650 5649 5648 5649 5651 5649 5650 5652 5652 5651 5651 5650 5648 5647 5646 5645 5643 5642 5640 5638 5636 5635 5633 5632 5631 5630 5629 5627 5627 5626 5625 5624 5624 5624 5624 5624 5625 5626 5627 5629 5631 5633 5635 5638 5640 5643 5645
5641 5641 5639 5637 5637 5638 5639 5638 5640 5641 5640 5639 5639 5638 5637 5635 5634 5633 5631 5629 5627 5625 5623 5622 5620 5619 5618 5616 5615 5613 5612 5610 5610 5610 5610 5610 5611 5611 5612 5612 5613 5615 5617 5619 5621 5623 5626 5628 5630
5631 5630 5630 5628 5627 5627 5627 5627 5630 5630 5629 5627 5626 5626 5624 5624 5622 5620 5618 5617 5615 5612 5611 5610 5608 5607 5605 5604 5602 5600 5598 5596 5596 5596 5596 5597 5597 5598 5598 5599 5600 5602 5604 5606 5608 5609 5612 5614 5617
5619 5619 5619 5618 5615 5615 5616 5617 5619 5618 5617 5616 5615 5614 5613 5612 5610 5608 5606 5604 5602 5600 5599 5597 5595 5594 5593 5591 5590 5587 5585 5584 5583 5583 5583 5583 5584 5585 5586 5587 5588 5590 5591 5593 5595 5597 5599 5601 5604
5608 5608 5608 5606 5605 5604 5605 5606 5608 5607 5606 5605 5604 5603 5602 5600 5598 5596 5595 5593 5591 5589 5587 5585 5584 5582 5581 5579 5578 5576 5574 5572 5570 5570 5570 5570 5571 5572 5573 5574 5576 5577 5579 5581 5582 5584 5586 5589 5591
5597 5597 5596 5595 5594 5594 5594 5598 5598 5597 5595 5594 5593 5591 5590 5589 5587 5586 5584 5582 5580 5578 5576 5574 5573 5571 5570 5568 5567 5565 5562 5560 5559 5558 5558 5558 5559 5560 5561 5563 5564 5566 5567 5569 5571 5572 5574 5576 5579
5585 5585 5585 5585 5585 5583 5583 5589 5588 5586 5584 5583 5582 5580 5579 5578 5577 5575 5574 5572 5570 5568 5566 5564 5562 5560 5559 5557 5555 5554 5551 5549 5548 5547 5546 5546 5547 5548 5550 5551 5553 5554 5556 5557 5558 5560 5561 5563 5566